Погода на Бальтре

Эквадор     0°39′15″N   90°24′15″W
темп.,
°C
ветер,
м/с
пор.,
м/с
влажн.,
%
обл.,
%
осадки,
мм/ч
давл.,
гПа
погр.,
м
17 июня, чт
чт1700:00+23юв557777 0.0 1013796
03:00+23юв557789 0.0 1011757
06:00+23юв4480100 0.1 1012417
09:00+23ююв557971 0.1 1014504
12:00+24ююв557882 0.1 1013480
15:00+24ююв457752 0.0 1010415
18:00+24юв347957 0.1 1011292
21:00+24юв358158 0.1 1013250
18 июня, пт
пт1800:00+24юв348056 0.1 1013171
03:00+24юв22795 0.0 101172
06:00+24юв117946 0.0 101233
09:00+25ю347560 0.0 1014253
12:00+25ююв557856 0.1 1013516
15:00+24ююв568145 0.1 1011508
18:00+24ююв45856 0.1 1012404
21:00+24ююв468725 0.1 1014425
19 июня, сб
сб1900:00+23ююв468812 0.3 1014465
03:00+23юв458557 0.1 1013453
06:00+23юв358561 0.1 1013381
09:00+24ююв56825 0.0 1015535
12:00+24ююв66807 0.0 1014557
15:00+24юв66807 0.0 1012590
18:00+24юв66835 0.0 1013601
21:00+23юв668564 0.0 1015524
20 июня, вс
вс2000:00+23юв668389 0.0 1014548
03:00+23ююв668225 0.0 1013664
06:00+23ююв678275 0.1 1014602
09:00+23ююв678153 0.1 1015621
12:00+23ююв667942 0.1 1014553
15:00+24ююв567743 0.1 1012673
18:00+23ююв5682100 0.1 1013438
21:00+23ююв568454 0.1 1015396
21 июня, пн
пн2100:00+23ююв568468 0.1 1015430
03:00+23ююв568593 0.1 1014425
06:00+23юв6685100 0.3 1015457
09:00+23ююв6781100 0.1 1016604
12:00+23ююв688058 0.1 1014576
15:00+23ююв6778100 0.0 1012687
18:00+23ююв5679100 0.0 1013535
21:00+23юв568368 0.0 1015507